Regional Weather Roundup
Issued by NWS

Home | Current Version | Previous Version | Graphics & Text | Print | Product List | Glossary On
Versions: 1 2 3 4 5 6 7 8 9 10 11 12 13 14 15 16 17 18 19 20 21 22 23 24 25 26 27 28 29 30 31 32 33 34 35 36 37 38 39 40 41 42 43 44 45 46 47 48 49 50
000
ASUS45 KABQ 271610
RWRNM
NEW MEXICO REGIONAL WEATHER ROUNDUP
NATIONAL WEATHER SERVICE ALBUQUERQUE NM
1000 AM MDT THU AUG 27 2015

NOTE: "FAIR" MEANS FEW OR NO CLOUDS BELOW 12,000 FEET AGL WITH NO
       SIGNIFICANT WEATHER OR OBSTRUCTIONS TO VISION.

      THIS PRODUCT IS RELEASED AS TWO VERSIONS.  ONE VERSION NEAR
      THE TOP OF THE HOUR CONTAINING PRELIMINARY DATA FROM ALBUQUERQUE
      AND OTHER STATIONS.  A FINAL VERSION WITH ADDITIONAL DATA IS
      ISSUED ABOUT 10 MINUTES AFTER THE HOUR.

NMZ501-503-504-510>518-271700-
NORTHWEST PLATEAU/NORTHCENTRAL MOUNTAINS

CITY           SKY/WX    TMP DP  RH WIND       PRES   REMARKS
FARMINGTON     SUNNY     68  58  70 SE5       30.34R
LOS ALAMOS     CLOUDY    61  55  79 CALM      30.45R
SANTA FE       MOSUNNY   68  55  63 CALM      30.38S
TAOS           MOSUNNY   61  46  59 W5        30.45R
ANGEL FIRE     FAIR      56  49  77 W13       30.49R

$$
NMZ402-403-502-505>509-271700-
WESTCENTRAL MOUNTAINS/SOUTHWEST MOUNTAINS

CITY           SKY/WX    TMP DP  RH WIND       PRES   REMARKS
GALLUP         MOSUNNY   66  55  67 W3        30.41R
GRANTS         MOSUNNY   69  55  60 SE5       30.42S
SILVER CITY      N/A     75  59  57 NW17      30.35R

$$
NMZ407-409-411-412-271700-
SOUTHERN DESERTS

CITY           SKY/WX    TMP DP  RH WIND       PRES   REMARKS
LORDSBURG      FAIR      81  54  39 NW6       30.26R
DEMING         SUNNY     82  55  39 NE17      30.24S
LAS CRUCES     MOSUNNY   81  56  41 NE3       30.26S
HOLLOMAN AFB   MOSUNNY   84  52  33 VRB2      30.22S
ALAMOGORDO     MOSUNNY   81  54  39 W5        30.25S
T OR C         PTSUNNY   75  56  51 N8        30.30S

$$
NMZ519>523-271700-
CENTRAL VALLEYS/CENTRAL HIGHLANDS

CITY           SKY/WX    TMP DP  RH WIND       PRES   REMARKS
ALBUQUERQUE    PTSUNNY   71  55  56 CALM      30.34S
DOUBLE EAGLE   PTSUNNY   72  55  56 S3        30.37S
MORIARTY ARPT  FAIR      69  54  58 NW3       30.38S
CLINES CORNERS PTSUNNY   65  55  70 W16       30.40S
BELEN          FAIR      72  62  68 E7        30.33S
SOCORRO        FAIR      73  58  60 S7        30.30S

$$
NMZ524>526-539-540-271700-
SOUTHCENTRAL MOUNTAINS

CITY           SKY/WX    TMP DP  RH WIND       PRES   REMARKS
RUIDOSO        SUNNY     72  54  53 MISG      30.43S

$$
NMZ527>531-271700-
NORTHEAST HIGHLANDS/NORTHEAST PLAINS

CITY           SKY/WX    TMP DP  RH WIND       PRES   REMARKS
LAS VEGAS      PTSUNNY   71  48  43 W6        30.36F
RATON          PTSUNNY   68  52  56 CALM      30.27R
CLAYTON        PTSUNNY   77  56  48 SW14G24   30.18F

$$
NMZ532>537-271700-
EASTCENTRAL PLAINS

CITY           SKY/WX    TMP DP  RH WIND       PRES   REMARKS
TUCUMCARI      PTSUNNY   83  57  41 SW13      30.17F
CANNON AFB     NOT AVBL
CLOVIS AIRPORT PTSUNNY   81  57  44 SW15      30.24S

$$
NMZ028-029-538-271700-
SOUTHEAST PLAINS

CITY           SKY/WX    TMP DP  RH WIND       PRES   REMARKS
ROSWELL        SUNNY     84  55  36 CALM      30.19F
ARTESIA        SUNNY     81  57  44 E3        30.21S
CARLSBAD       NOT AVBL


$$



USA.gov is the U.S. government's official web portal to all federal, state and local government web resources and services.